Regional Weather Roundup
Issued by NWS Little Rock, AR

Home | Current Version | Previous Version | Graphics & Text | Print | Product List | Glossary On
Versions: 1 2 3 4 5 6 7 8 9 10 11 12 13 14 15 16 17 18 19 20 21 22 23 24 25 26 27 28 29 30 31 32 33 34 35 36 37 38 39 40 41 42 43 44 45 46 47 48 49 50
000
ASUS44 KLZK 220612
RWRLZK

WEATHER ROUNDUP FOR ARKANSAS
NATIONAL WEATHER SERVICE LITTLE ROCK AR
100 AM CDT SUN OCT 22 2017

NOTE: "FAIR" INDICATES FEW OR NO CLOUDS BELOW 12,000 FEET WITH NO
SIGNIFICANT WEATHER AND/OR OBSTRUCTIONS TO VISIBILITY.

ARZ001-003-010-029-220700-
NORTHWEST ARKANSAS

CITY           SKY/WX    TMP DP  RH WIND       PRES   REMARKS
FAYETTEVILLE   TSTM      56  56 100 NW12G26   29.99R VSB 1/2
6HR MIN TEMP:  56; 6HR MAX TEMP:  73; 6HR PCP:  0.39;

FORT SMITH     TSTM      61  57  87 NW31G64   29.94R FOG
6HR MIN TEMP:  72; 6HR MAX TEMP:  78;

HARRISON       CLOUDY    72  67  84 S9G20     29.90F
6HR MIN TEMP:  69; 6HR MAX TEMP:  73; 6HR PCP: TRACE;

BENTONVILLE    TSTM      57  55  94 SW3       30.00R
6HR MIN TEMP:  57; 6HR MAX TEMP:  73; 6HR PCP:  0.65;

ROGERS         LGT RAIN  57  56  96 NW5       29.96R
6HR MIN TEMP:  57; 6HR MAX TEMP:  72; 6HR PCP:  1.06;

SILOAM SPGS    RAIN      57  55  94 NW5       29.98R
6HR MIN TEMP:  57; 6HR MAX TEMP:  73; 6HR PCP:  1.06;

$$

ARZ004-005-016-220700-
NORTH CENTRAL ARKANSAS

CITY           SKY/WX    TMP DP  RH WIND       PRES   REMARKS
BATESVILLE     CLOUDY    74  67  78 S12G17    29.96F
6HR MIN TEMP:  73; 6HR MAX TEMP:  75;

FLIPPIN        MOCLDY    74  67  78 S16G23    29.88F
6HR MIN TEMP:  71; 6HR MAX TEMP:  75;

MTN HOME       PTCLDY    73  67  81 S15G28    29.88F
6HR MIN TEMP:  70; 6HR MAX TEMP:  74;

$$

ARZ040-041-220700-
WEST CENTRAL ARKANSAS

CITY           SKY/WX    TMP DP  RH WIND       PRES   REMARKS
MENA           CLOUDY    77  75  94 S5G18     29.93R
$$

ARZ009-017-025-026-028-220700-
NORTHEAST ARKANSAS

CITY           SKY/WX    TMP DP  RH WIND       PRES   REMARKS
CORNING        CLOUDY    73  66  78 S14G24    29.99S
JONESBORO      CLOUDY    73  65  75 S14       30.01R
6HR MIN TEMP:  72; 6HR MAX TEMP:  77;

NEWPORT        CLOUDY    73  65  75 S20       29.97F
6HR MIN TEMP:  72; 6HR MAX TEMP:  77;

WALNUT RIDGE   MOCLDY    72  64  76 S20       29.97F
BLYTHEVILLE    CLOUDY    72  63  73 S14G22    30.02F
6HR MIN TEMP:  71; 6HR MAX TEMP:  74;

$$

ARZ022-023-033-042-044-220700-
CENTRAL ARKANSAS

CITY           SKY/WX    TMP DP  RH WIND       PRES   REMARKS
LITTLE ROCK    CLOUDY    74  70  87 S15G24    29.94F
6HR MIN TEMP:  72; 6HR MAX TEMP:  75; 6HR PCP: TRACE;

N LITTLE ROCK    N/A     74  69  86 S7        29.95F
6HR MIN TEMP:  73; 6HR MAX TEMP:  76;

JACKSONVILLE   CLOUDY    74  69  85 SE7       29.93F
6HR MIN TEMP:  73; 6HR MAX TEMP:  76; 6HR PCP: TRACE;

SEARCY         CLOUDY    74  70  87 S13       29.96F
6HR MIN TEMP:  73; 6HR MAX TEMP:  78;

HOT SPRINGS    CLOUDY    75  71  87 S9G28     29.94F
6HR MIN TEMP:  75; 6HR MAX TEMP:  78;

RUSSELLVILLE   MOCLDY    75  69  81 S8        29.89F
6HR MIN TEMP:  72; 6HR MAX TEMP:  76; 6HR PCP: TRACE;

CLINTON        DRIZZLE   73  68  83 S7G15     29.94F
$$

ARZ036-220700-
EAST ARKANSAS

CITY           SKY/WX    TMP DP  RH WIND       PRES   REMARKS
WEST MEMPHIS   MOCLDY    73  65  75 S16       30.01S
6HR MIN TEMP:  72; 6HR MAX TEMP:  76;

$$

ARZ050-053-066-070-073-220700-
SOUTHWEST ARKANSAS

CITY           SKY/WX    TMP DP  RH WIND       PRES   REMARKS
ARKADELPHIA    LGT RAIN  73  70  90 S8        29.95F
6HR MIN TEMP:  73; 6HR MAX TEMP:  78; 6HR PCP: TRACE;

CAMDEN         CLOUDY    73  68  83 SE8G14    29.96F
TEXARKANA      PTCLDY    73  67  81 S12       29.92F
6HR MIN TEMP:  73; 6HR MAX TEMP:  79;

EL DORADO      PTCLDY    72  72 100 SE12      29.97F
6HR MIN TEMP:  72; 6HR MAX TEMP:  78;

DE QUEEN       CLOUDY    76  72  87 S8        29.89F
6HR MIN TEMP:  76; 6HR MAX TEMP:  78;

$$

ARZ056-057-069-220700-
SOUTHEAST ARKANSAS

CITY           SKY/WX    TMP DP  RH WIND       PRES   REMARKS
PINE BLUFF     CLOUDY    75  69  81 S15       29.98S
6HR MIN TEMP:  73; 6HR MAX TEMP:  77;

STUTTGART      CLOUDY    74  69  85 S16       29.99S
6HR MIN TEMP:  73; 6HR MAX TEMP:  78;

MONTICELLO     CLOUDY    73  70  90 S8        29.98F
6HR MIN TEMP:  71; 6HR MAX TEMP:  74;


$$





USA.gov is the U.S. government's official web portal to all federal, state and local government web resources and services.